This is the latest recevied weather packets stored in our database for station/object OK1KZE-6. If no packets are shown the sender has not sent any weather packets the latest 10 day(s).
| Time | Temp. | Humidity | Pressure | Rain* | Wind** | Luminosity | Snow |
|---|---|---|---|---|---|---|---|
| 1777624508 | 13.89° C | 48% | 1031.2 hPa | - | - | - | - |
| 1777623908 | 12.78° C | 49% | 1031.2 hPa | - | - | - | - |
| 1777623607 | 12.78° C | 50% | 1031.1 hPa | - | - | - | - |
| 1777623309 | 12.22° C | 50% | 1031.1 hPa | - | - | - | - |
| 1777623009 | 12.22° C | 50% | 1031.3 hPa | - | - | - | - |
| 1777622708 | 12.22° C | 50% | 1031 hPa | - | - | - | - |
| 1777622408 | 12.22° C | 51% | 1031.1 hPa | - | - | - | - |
| 1777622108 | 12.22° C | 50% | 1030.8 hPa | - | - | - | - |
| 1777621808 | 12.22° C | 49% | 1030.8 hPa | - | - | - | - |
| 1777621508 | 11.67° C | 50% | 1031.1 hPa | - | - | - | - |
| 1777621208 | 11.67° C | 49% | 1031 hPa | - | - | - | - |
| 1777620608 | 11.67° C | 48% | 1030.9 hPa | - | - | - | - |
| 1777620308 | 11.67° C | 49% | 1030.8 hPa | - | - | - | - |
| 1777620008 | 11.11° C | 50% | 1030.8 hPa | - | - | - | - |
| 1777619709 | 10.56° C | 51% | 1030.9 hPa | - | - | - | - |
| 1777619408 | 10.56° C | 52% | 1030.7 hPa | - | - | - | - |
| 1777619108 | 10° C | 54% | 1030.8 hPa | - | - | - | - |
| 1777618509 | 9.44° C | 55% | 1030.6 hPa | - | - | - | - |
| 1777618208 | 8.89° C | 55% | 1030.5 hPa | - | - | - | - |
| 1777617909 | 8.33° C | 57% | 1030.7 hPa | - | - | - | - |
| 1777617608 | 8.33° C | 57% | 1030.6 hPa | - | - | - | - |
| 1777617309 | 8.33° C | 57% | 1030.6 hPa | - | - | - | - |
| 1777617008 | 7.78° C | 58% | 1030.6 hPa | - | - | - | - |
| 1777616708 | 7.78° C | 58% | 1030.7 hPa | - | - | - | - |
| 1777616407 | 7.22° C | 60% | 1030.5 hPa | - | - | - | - |
* Rain since midnight (hover to see other rain measurements)
** Current wind speed in m/s (hover to see current wind gust speed)